Estación Meteorológica Peña el Pijo (Robertgarden) [ 12/11/19 23:05:32 CET ]

Fecha Hora Presion(HPa) Temp (°C) Humedad % Rocio (°C) Viento ( m/s) Direccion Lluvia 1Hora(mm) Lluvia 24H(mm) LLuvia Total(mm)
2019-Dec-07 01:09:06 1011.300 - - - - S     39.88
2019-Dec-07 02:09:54 1011.200 - - - - S     39.88
2019-Dec-07 03:09:47 1011.300 - - - - S     39.88
2019-Dec-07 04:14:16 1011.300 - - - - S     39.88
2019-Dec-07 05:09:17 1010.900 - - - - S     39.88
2019-Dec-07 06:09:04 1011.000 - - - - S     39.88
2019-Dec-07 07:09:24 1011.000 - - - - S     39.88
2019-Dec-07 08:09:16 1011.400 - - - - S     39.88
2019-Dec-07 09:09:28 1011.800 - - - - S     39.88
2019-Dec-07 10:09:26 1012.100 - - - - S     39.88
2019-Dec-07 11:09:10 1012.000 - - - - S     39.88
2019-Dec-07 12:08:52 1011.700 - - - - S     39.88
2019-Dec-07 13:09:23 1011.000 - - - - S     39.88
2019-Dec-07 14:08:59 1010.400 - - - - S     39.88
2019-Dec-07 15:09:12 1010.100 - - - - S     39.88
2019-Dec-07 16:08:59 1010.500 - - - - S     39.88
2019-Dec-07 17:09:13 1011.200 - - - - S     39.88
2019-Dec-07 18:09:16 1011.600 - - - - S     39.88
2019-Dec-07 19:09:29 1012.200 - - - - S     39.88
2019-Dec-07 20:09:21 1012.700 - - - - S     39.88
2019-Dec-07 21:09:09 1012.900 - - - - S     39.88
2019-Dec-07 22:09:28 1013.300 - - - - S     39.88
2019-Dec-07 23:08:57 1013.700 - - - - S     39.88

Temperatura Máxima:    Temperatura Mínima:
Presión Máxima:1013.700 Hpa    Presión Mínima:1010.100 Hpa


Volver